Location: Austin, TX
(30.3000°N, 97.7500°W)
Time: 21:24:27
(UTC-06:00)

Cosmos 1666 - Visible Passes

Search period start: 20 December 2014 00:00
Search period end: 30 December 2014 00:00
Orbit: 513 x 540 km, 82.5° (Epoch: 19 December)

Date Brightness Start Highest point End Pass type
(mag) Time Alt. Az. Time Alt. Az. Time Alt. Az.
20 Dec 5.6 18:38:40 10° NW 18:41:37 20° W 18:44:34 10° SW visible
21 Dec 3.2 06:48:26 10° SSW 06:52:00 38° W 06:55:36 10° NNW visible
21 Dec 5.4 18:26:52 10° NW 18:30:01 23° W 18:33:08 10° SW visible
22 Dec 3.0 06:36:43 10° SSW 06:40:21 43° W 06:44:02 10° N visible
22 Dec 5.3 18:15:06 10° NW 18:18:23 26° W 18:21:40 10° SSW visible
23 Dec 2.9 06:24:59 10° SSW 06:28:41 49° W 06:32:26 10° N visible
23 Dec 5.1 18:03:20 10° NNW 18:06:45 29° W 18:10:10 10° SSW visible
24 Dec 2.7 06:13:16 10° SSW 06:17:01 56° W 06:20:49 10° N visible
25 Dec 2.6 06:01:32 10° SSW 06:05:20 65° W 06:09:11 10° N visible
26 Dec 2.5 05:49:49 10° S 05:53:38 74° W 05:57:30 10° N visible
27 Dec 2.5 05:38:06 10° S 05:41:56 85° W 05:42:37 58° N visible
28 Dec 4.9 05:26:23 10° S 05:27:21 17° S 05:27:21 17° S visible
